TimePST,TemperatureF,Dew PointF,Humidity,Sea Level PressureIn,VisibilityMPH,Wind Direction,Wind SpeedMPH,Gust SpeedMPH,PrecipitationIn,Events,Conditions,WindDirDegrees,DateUTC
12:15 AM,32.0,32.0,100,30.12,0.8,Calm,Calm,-,N/A,,Unknown,0,2013-01-06 08:15:00
12:35 AM,32.0,32.0,100,30.11,0.5,Calm,Calm,-,N/A,,Unknown,0,2013-01-06 08:35:00
12:55 AM,32.0,32.0,100,30.11,5.0,NNW,3.5,-,N/A,,Unknown,330,2013-01-06 08:55:00
1:15 AM,32.0,32.0,100,30.10,1.2,Calm,Calm,-,N/A,,Unknown,0,2013-01-06 09:15:00
1:35 AM,32.0,32.0,100,30.12,0.2,Calm,Calm,-,N/A,,Unknown,0,2013-01-06 09:35:00
1:55 AM,32.0,32.0,100,30.11,0.5,Calm,Calm,-,N/A,,Unknown,0,2013-01-06 09:55:00
2:35 AM,32.0,32.0,100,30.12,4.0,Calm,Calm,-,N/A,,Unknown,0,2013-01-06 10:35:00
2:55 AM,32.0,32.0,100,30.12,1.0,Calm,Calm,-,N/A,,Unknown,0,2013-01-06 10:55:00
3:15 AM,32.0,32.0,100,30.12,1.2,Calm,Calm,-,N/A,,Unknown,0,2013-01-06 11:15:00
3:35 AM,32.0,32.0,100,30.12,1.2,Calm,Calm,-,N/A,,Unknown,0,2013-01-06 11:35:00
4:15 AM,32.0,32.0,100,30.13,1.8,Calm,Calm,-,N/A,,Unknown,0,2013-01-06 12:15:00
4:35 AM,32.0,32.0,100,30.13,2.5,Calm,Calm,-,N/A,,Unknown,0,2013-01-06 12:35:00
4:55 AM,32.0,32.0,100,30.14,2.5,Calm,Calm,-,N/A,,Unknown,0,2013-01-06 12:55:00
5:15 AM,32.0,32.0,100,30.14,1.2,Calm,Calm,-,N/A,,Unknown,0,2013-01-06 13:15:00
5:35 AM,32.0,32.0,100,30.14,0.8,Calm,Calm,-,N/A,,Unknown,0,2013-01-06 13:35:00
5:55 AM,32.0,32.0,100,30.14,0.5,Calm,Calm,-,N/A,,Unknown,0,2013-01-06 13:55:00
6:35 AM,32.0,32.0,100,30.13,0.5,Calm,Calm,-,N/A,,Unknown,0,2013-01-06 14:35:00
6:55 AM,32.0,32.0,100,30.14,0.5,Calm,Calm,-,N/A,,Unknown,0,2013-01-06 14:55:00
7:15 AM,32.0,32.0,100,30.15,0.5,Calm,Calm,-,N/A,,Unknown,0,2013-01-06 15:15:00
7:35 AM,32.0,32.0,100,30.15,0.5,Calm,Calm,-,N/A,,Unknown,0,2013-01-06 15:35:00
7:55 AM,32.0,32.0,100,30.16,0.8,Calm,Calm,-,N/A,,Unknown,0,2013-01-06 15:55:00
8:15 AM,32.0,32.0,100,30.17,0.5,Calm,Calm,-,N/A,,Unknown,0,2013-01-06 16:15:00
8:35 AM,33.8,32.0,93,30.18,3.0,Calm,Calm,-,N/A,,Unknown,0,2013-01-06 16:35:00
8:55 AM,33.8,32.0,93,30.19,1.2,Calm,Calm,-,N/A,,Unknown,0,2013-01-06 16:55:00
9:15 AM,33.8,32.0,93,30.19,1.2,Calm,Calm,-,N/A,,Unknown,0,2013-01-06 17:15:00
9:35 AM,33.8,32.0,93,30.19,0.8,SW,3.5,-,N/A,,Unknown,220,2013-01-06 17:35:00
9:55 AM,33.8,32.0,93,30.20,2.0,Calm,Calm,-,N/A,,Unknown,0,2013-01-06 17:55:00
10:15 AM,35.6,33.8,93,30.20,3.0,Calm,Calm,-,N/A,,Unknown,0,2013-01-06 18:15:00
10:35 AM,35.6,33.8,93,30.20,7.0,SW,3.5,-,N/A,,Unknown,220,2013-01-06 18:35:00
10:55 AM,35.6,33.8,93,30.19,10.0,Calm,Calm,-,N/A,,Unknown,0,2013-01-06 18:55:00
11:15 AM,35.6,32.0,87,30.19,10.0,Calm,Calm,-,N/A,,Unknown,0,2013-01-06 19:15:00
11:35 AM,35.6,32.0,87,30.18,10.0,Calm,Calm,-,N/A,,Unknown,0,2013-01-06 19:35:00
11:55 AM,35.6,32.0,87,30.17,10.0,SSW,3.5,-,N/A,,Unknown,210,2013-01-06 19:55:00
12:15 PM,35.6,32.0,87,30.17,10.0,Calm,Calm,-,N/A,,Unknown,0,2013-01-06 20:15:00
12:35 PM,37.4,32.0,81,30.17,10.0,Calm,Calm,-,N/A,,Unknown,0,2013-01-06 20:35:00
12:55 PM,37.4,32.0,81,30.16,10.0,Calm,Calm,-,N/A,,Unknown,0,2013-01-06 20:55:00
1:15 PM,37.4,32.0,81,30.16,10.0,Calm,Calm,-,N/A,,Unknown,0,2013-01-06 21:15:00
1:35 PM,37.4,32.0,81,30.16,10.0,Calm,Calm,-,N/A,,Unknown,0,2013-01-06 21:35:00
1:55 PM,37.4,32.0,81,30.16,10.0,South,3.5,-,N/A,,Unknown,190,2013-01-06 21:55:00
2:15 PM,37.4,33.8,87,30.16,10.0,Calm,Calm,-,N/A,,Unknown,0,2013-01-06 22:15:00
2:35 PM,37.4,33.8,87,30.16,10.0,South,4.6,-,N/A,,Unknown,190,2013-01-06 22:35:00
2:55 PM,37.4,33.8,87,30.16,10.0,Calm,Calm,-,N/A,,Unknown,0,2013-01-06 22:55:00
3:15 PM,37.4,33.8,87,30.17,10.0,Calm,Calm,-,N/A,,Unknown,0,2013-01-06 23:15:00
3:35 PM,37.4,33.8,87,30.17,10.0,Calm,Calm,-,N/A,,Unknown,0,2013-01-06 23:35:00
4:15 PM,37.4,35.6,93,30.17,10.0,Calm,Calm,-,N/A,,Unknown,0,2013-01-07 00:15:00
4:35 PM,37.4,33.8,87,30.17,10.0,Calm,Calm,-,N/A,,Unknown,0,2013-01-07 00:35:00
5:15 PM,35.6,33.8,93,30.18,10.0,Calm,Calm,-,N/A,,Unknown,0,2013-01-07 01:15:00
5:35 PM,35.6,33.8,93,30.18,10.0,Calm,Calm,-,N/A,,Unknown,0,2013-01-07 01:35:00
5:55 PM,35.6,33.8,93,30.19,7.0,Calm,Calm,-,N/A,,Unknown,0,2013-01-07 01:55:00
6:15 PM,35.6,33.8,93,30.19,9.0,Calm,Calm,-,N/A,,Unknown,0,2013-01-07 02:15:00
6:35 PM,35.6,33.8,93,30.19,10.0,Calm,Calm,-,N/A,,Unknown,0,2013-01-07 02:35:00
6:55 PM,35.6,32.0,87,30.20,7.0,Calm,Calm,-,N/A,,Unknown,0,2013-01-07 02:55:00
7:15 PM,35.6,32.0,87,30.21,5.0,Calm,Calm,-,N/A,,Unknown,0,2013-01-07 03:15:00
7:35 PM,35.6,32.0,87,30.22,5.0,Calm,Calm,-,N/A,,Unknown,0,2013-01-07 03:35:00
7:55 PM,35.6,32.0,87,30.22,8.0,Calm,Calm,-,N/A,,Unknown,0,2013-01-07 03:55:00
8:15 PM,35.6,32.0,87,30.22,7.0,Calm,Calm,-,N/A,,Unknown,0,2013-01-07 04:15:00
8:35 PM,33.8,32.0,93,30.21,3.0,Calm,Calm,-,N/A,,Unknown,0,2013-01-07 04:35:00
8:55 PM,33.8,32.0,93,30.20,4.0,Calm,Calm,-,N/A,,Unknown,0,2013-01-07 04:55:00
9:15 PM,33.8,32.0,93,30.21,7.0,Calm,Calm,-,N/A,,Unknown,0,2013-01-07 05:15:00
9:35 PM,33.8,32.0,93,30.22,3.0,Calm,Calm,-,N/A,,Unknown,0,2013-01-07 05:35:00
9:55 PM,33.8,32.0,93,30.23,9.0,Calm,Calm,-,N/A,,Unknown,0,2013-01-07 05:55:00
10:15 PM,33.8,32.0,93,30.23,4.0,Calm,Calm,-,N/A,,Unknown,0,2013-01-07 06:15:00
10:35 PM,33.8,32.0,93,30.24,5.0,Calm,Calm,-,N/A,,Unknown,0,2013-01-07 06:35:00
10:55 PM,33.8,32.0,93,30.24,3.0,Calm,Calm,-,N/A,,Unknown,0,2013-01-07 06:55:00
11:15 PM,33.8,32.0,93,30.23,5.0,Calm,Calm,-,N/A,,Unknown,0,2013-01-07 07:15:00
11:35 PM,33.8,32.0,93,30.23,4.0,Calm,Calm,-,N/A,,Unknown,0,2013-01-07 07:35:00
11:55 PM,33.8,32.0,93,30.23,3.0,Calm,Calm,-,N/A,,Unknown,0,2013-01-07 07:55:00